Renton, WA
on Friday, February 15, 2013

Friday
Previous Day Next Day
Daily Summary
 ActualAverage (KSEA)Record (KSEA)
Temperature
Mean Temperature °F 43°F  
Max Temperature 55°F 50°F 65°F (1996)
Min Temperature 39°F 37°F 13°F (1956)
Degree Days
Heating Degree Days 18 22  
Month to date heating degree days 330  
Since 1 July heating degree days 2979  
Cooling Degree Days 0 0  
Month to date cooling degree days 0  
Year to date cooling degree days 0  
Moisture
Dew Point 42°F   
Average Humidity 94    
Maximum Humidity 100    
Minimum Humidity 62    
Precipitation
Precipitation 0.00 in 0.12 in 0.94 in (1970)
Month to date precipitation 1.94  
Year to date precipitation 7.51  
Snow
Snow 0.00 in in 2.30 in (1980)
Month to date snowfall  
Since 1 July snowfall  
Snow Depth in   
Wind
Wind Speed 3 mph   
Max Wind Speed 10 mph   
Max Gust Speed mph   
Visibility 5 miles   
Events Fog   

Key: T is trace of precipitation, MM is missing value
Source: NWS Daily Summary
Time(PST)TemperatureDew PointHumidity Pressure Visibility Wind DirectionWind SpeedGust SpeedPrecipitationEvents Conditions
12:34 AM 44.6°F 42.8°F 93% 30.55 in 9.0 miles NW 6.9 mph - N/A   Partly Cloudy
12:53 AM 44.1°F 43.0°F 96% 30.56 in 9.0 miles North 3.5 mph - N/A   Clear
1:37 AM 44.6°F 42.8°F 93% 30.54 in 9.0 miles Calm Calm - N/A   Partly Cloudy
1:53 AM 43.0°F 42.1°F 97% 30.55 in 6.0 miles ENE 3.5 mph - N/A   Mostly Cloudy
2:10 AM 42.8°F 42.8°F 100% 30.54 in 2.5 miles Calm Calm - N/A   Overcast
2:17 AM 42.8°F 42.8°F 100% 30.54 in 0.8 miles Calm Calm - N/A   Overcast
2:36 AM 42.8°F 42.8°F 100% 30.53 in 2.0 miles Calm Calm - N/A   Overcast
2:45 AM 42.8°F 42.8°F 100% 30.53 in 5.0 miles Calm Calm - N/A   Overcast
2:53 AM 42.1°F 42.1°F 100% 30.54 in 5.0 miles Calm Calm - N/A   Overcast
3:51 AM 42.8°F 42.8°F 100% 30.50 in 1.5 miles NW 4.6 mph - N/A   Overcast
3:53 AM 43.0°F 43.0°F 100% 30.52 in 1.0 miles NNW 3.5 mph - N/A   Overcast
4:01 AM 42.8°F 42.8°F 100% 30.50 in 0.5 miles NW 5.8 mph - N/A Fog Fog
4:45 AM 42.8°F 42.8°F 100% 30.50 in 2.0 miles Calm Calm - N/A   Overcast
4:53 AM 42.1°F 42.1°F 100% 30.51 in 2.5 miles Calm Calm - N/A   Overcast
5:00 AM 41.0°F 41.0°F 100% 30.50 in 0.8 miles Calm Calm - N/A   Mist
5:23 AM 41.0°F 41.0°F 100% 30.50 in 1.0 miles NNE 3.5 mph - N/A   Mist
5:51 AM 41.0°F 41.0°F 100% 30.49 in 0.8 miles NNE 3.5 mph - N/A   Mist
5:53 AM 41.0°F 41.0°F 100% 30.51 in 0.8 miles NNE 3.5 mph - N/A   Mist
6:44 AM 39.2°F 39.2°F 100% 30.48 in 1.8 miles Variable 3.5 mph - N/A   Overcast
6:51 AM 39.2°F 39.2°F 100% 30.48 in 3.0 miles Variable 3.5 mph - N/A   Overcast
6:53 AM 39.0°F 39.0°F 100% 30.50 in 2.5 miles NNW 5.8 mph - N/A   Overcast
7:53 AM 39.0°F 39.0°F 100% 30.49 in 2.0 miles NNW 4.6 mph - N/A   Overcast
7:55 AM 39.2°F 39.2°F 100% 30.48 in 1.2 miles NNW 4.6 mph - N/A   Overcast
8:53 AM 39.9°F 39.9°F 100% 30.49 in 1.5 miles Calm Calm - N/A   Overcast
9:53 AM 39.0°F 39.0°F 100% 30.47 in 1.5 miles Calm Calm - N/A   Overcast
10:53 AM 41.0°F 41.0°F 100% 30.45 in 3.0 miles WNW 8.1 mph - N/A   Overcast
11:53 AM 43.0°F 41.0°F 93% 30.43 in 10.0 miles Calm Calm - N/A   Overcast
12:08 PM 44.6°F 42.8°F 93% 30.40 in 10.0 miles NW 3.5 mph - N/A   Scattered Clouds
12:53 PM 46.9°F 42.1°F 83% 30.39 in 10.0 miles NW 3.5 mph - N/A   Clear
1:53 PM 50.0°F 42.1°F 74% 30.35 in 10.0 miles NW 5.8 mph - N/A   Clear
2:53 PM 53.1°F 43.0°F 69% 30.31 in 10.0 miles NW 6.9 mph - N/A   Clear
3:53 PM 55.0°F 42.1°F 62% 30.29 in 10.0 miles NW 9.2 mph - N/A   Clear
4:53 PM 53.1°F 43.0°F 69% 30.26 in 10.0 miles WNW 5.8 mph - N/A   Clear
5:53 PM 50.0°F 42.1°F 74% 30.25 in 10.0 miles WNW 6.9 mph - N/A   Clear
6:53 PM 46.9°F 43.0°F 86% 30.24 in 10.0 miles NW 10.4 mph - N/A   Clear
7:53 PM 45.0°F 43.0°F 93% 30.24 in 10.0 miles NW 8.1 mph - N/A   Clear
8:53 PM 44.1°F 42.1°F 93% 30.25 in 10.0 miles NW 4.6 mph - N/A   Clear
9:53 PM 43.0°F 41.0°F 93% 30.24 in 9.0 miles Calm Calm - N/A   Clear
10:53 PM 41.0°F 39.9°F 96% 30.22 in 10.0 miles Calm Calm - N/A   Clear
11:53 PM 39.9°F 39.0°F 97% 30.20 in 9.0 miles Calm Calm - N/A   Clear
Moon Phase
Feb. 15 Feb. 17 Feb. 25 Mar. 04 Mar. 11
Sunrise:07:13 AM (PST) Moon Rise:09:25 AM (PST)2/15
Sunset:05:32 PM (PST) Moon Set:No Moon Set/

Copyright © 2014 The Weather Underground, Inc.